This is the latest recevied weather packets stored in our database for station/object NE1CU. If no packets are shown the sender has not sent any weather packets the latest 10 day(s).
| Time | Temp. | Humidity | Pressure | Rain* | Wind** | Luminosity | Snow |
|---|---|---|---|---|---|---|---|
| 1777740168 | 15.56° C | 62% | 1011.1 hPa | 0 mm | - | 784 W/m² | - |
| 1777739864 | 15° C | 64% | 1011.1 hPa | 0 mm | - | 684 W/m² | - |
| 1777739561 | 14.44° C | 64% | 1011.3 hPa | 0 mm | - | 749 W/m² | - |
| 1777739258 | 14.44° C | 65% | 1011.1 hPa | 0 mm | - | 520 W/m² | - |
| 1777738954 | 13.89° C | 69% | 1011.4 hPa | 0 mm | - | 566 W/m² | - |
| 1777738652 | 13.89° C | 69% | 1011.4 hPa | 0 mm | - | 507 W/m² | - |
| 1777738348 | 13.89° C | 66% | 1011.5 hPa | 0 mm | - | 480 W/m² | - |
| 1777738046 | 13.89° C | 67% | 1011.5 hPa | 0 mm | - | 381 W/m² | - |
| 1777737745 | 13.89° C | 70% | 1011.5 hPa | 0 mm | - | 394 W/m² | - |
| 1777737443 | 13.89° C | 68% | 1011.4 hPa | 0 mm | - | 454 W/m² | - |
| 1777737140 | 13.33° C | 71% | 1011.4 hPa | 0 mm | - | 403 W/m² | - |
| 1777736836 | 13.33° C | 71% | 1011.3 hPa | 0 mm | - | 317 W/m² | - |
| 1777736217 | 12.78° C | 70% | 1011.7 hPa | 0 mm | - | 250 W/m² | - |
| 1777735914 | 12.78° C | 70% | 1011.5 hPa | 0 mm | - | 294 W/m² | - |
| 1777735612 | 12.78° C | 71% | 1011.7 hPa | 0 mm | - | 265 W/m² | - |
| 1777735309 | 12.78° C | 69% | 1011.6 hPa | 0 mm | - | 311 W/m² | - |
| 1777735006 | 12.78° C | 70% | 1011.6 hPa | 0 mm | - | 154 W/m² | - |
| 1777734703 | 12.78° C | 70% | 1011.6 hPa | 0 mm | - | 326 W/m² | - |
| 1777734401 | 12.78° C | 72% | 1011.6 hPa | 0 mm | - | 254 W/m² | - |
| 1777734097 | 12.22° C | 72% | 1011.6 hPa | 0 mm | - | 244 W/m² | - |
| 1777733793 | 12.22° C | 71% | 1011.7 hPa | 0 mm | - | 143 W/m² | - |
| 1777733490 | 12.22° C | 71% | 1011.8 hPa | 0 mm | - | 93 W/m² | - |
| 1777733186 | 12.78° C | 71% | 1011.8 hPa | 0 mm | - | 133 W/m² | - |
| 1777732883 | 12.78° C | 70% | 1011.9 hPa | 0 mm | - | 103 W/m² | - |
| 1777732580 | 12.78° C | 71% | 1011.7 hPa | 0 mm | - | 91 W/m² | - |
* Rain latest hour (hover to see other rain measurements)
** Current wind speed in m/s (hover to see current wind gust speed)